Lexington Weather

Lexington, Massachusetts, USA

57°F
6/23/2021 2:00am 
  • Lexington Conditions: Partly cloudy
  • Temperature: 56.7°F / 13.7°CColder 1.9°F than last hour.
  • Dew Point: 54.7°FDecreased 2.5°Fsince last hour.
  • Relative Humidity: 93%Decreased 2.0% since last hour.
  • Wind: Calm, 10-min avg: Calm, gust: None
  • Barometer: 29.83 inRising 0.02  inHg/hr Rising Slowly
  • Visibility: 10 miles
  • Rain Today: 0.00 in
  •   

Regional Weather Roundup
for Boston / Norton, MA

        
000
ASUS41 KBOX 201004
RWRBOX

REGIONAL WEATHER ROUNDUP
NATIONAL WEATHER SERVICE BOSTON/NORTON MA
600 AM EDT SUN JUN 20 2021

NOTE:  "FAIR" INDICATES FEW OR NO CLOUDS BELOW 12,000 FEET WITH NO 
SIGNIFICANT WEATHER AND/OR OBSTRUCTIONS TO VISIBILITY.

MAZALL-201100-
EASTERN MASSACHUSETTS
  
CITY           SKY/WX    TMP DP  RH WIND       PRES   REMARKS
BOSTON         MOCLDY    72  58  61 SW8       29.76R                  
BEVERLY        PTCLDY    70  60  70 W8        29.74R                  
LAWRENCE       PTCLDY    70  57  63 SW7       29.76R                  
BEDFORD        CLOUDY    68  59  73 SW3       29.74R                  
BLUE HILL        N/A     63  61  93 W10       29.77R                  
NORWOOD        CLOUDY    67  62  84 CALM      29.77R                  
MARSHFIELD     MOCLDY    66  63  88 VRB5      29.76R                  
PLYMOUTH       MOCLDY    64  62  93 W6        29.77R                  
TAUNTON        MOCLDY    65  62  90 CALM      29.77R                  
NEW BEDFORD    CLOUDY    65  63  93 W6        29.77R                  
$$

MAZALL-201100-
CAPE COD AND THE ISLANDS
  
CITY           SKY/WX    TMP DP  RH WIND       PRES   REMARKS
FALMOUTH       CLEAR     64  63  94 SW8       29.77S                  
HYANNIS        CLEAR     67  63  87 SW5       29.76R                  
CHATHAM        MOCLDY    67  62  84 VRB3      29.77S                  
PROVINCETOWN   CLEAR     64  62  93 SW9       29.77R                  
NANTUCKET      PTCLDY    68  63  84 W9        29.78R                  
MARTHAS VNYRD  PTCLDY    64  62  93 SW6       29.78R                  
$$
 
MAZALL-201100-
CENTRAL AND WESTERN MASSACHUSETTS
  
CITY           SKY/WX    TMP DP  RH WIND       PRES   REMARKS
WORCESTER      CLOUDY    65  57  75 W7        29.79R                  
FITCHBURG      CLOUDY    69  57  65 NW5       29.77R                  
ORANGE         CLOUDY    65  59  81 S5        29.79R                  
SPRINGFIELD    CLOUDY    65  60  85 SW5       29.78R                  
WESTFIELD      CLOUDY    66  61  84 SW5       29.79R                  
NORTH ADAMS    CLEAR     60  57  89 CALM      29.82R                  
PITTSFIELD     CLEAR     59  56  89 CALM      29.81R                  
$$
 
RIZALL-201100-
RHODE ISLAND
  
CITY           SKY/WX    TMP DP  RH WIND       PRES   REMARKS
PROVIDENCE     MOCLDY    67  63  87 NW7       29.79R                  
NEWPORT        CLOUDY    65  63  93 VRB3      29.78R                  
BLOCK ISLAND   CLEAR     63  60  90 W12       29.80R                  
SMITHFIELD     CLOUDY    63  63 100 CALM      29.79R                  
WESTERLY       CLEAR     63  62  97 W5        29.79S                  
$$
 
CTZALL-201100-
CONNECTICUT
  
CITY           SKY/WX    TMP DP  RH WIND       PRES   REMARKS
BRADLEY INTL   MOCLDY    66  60  81 SW6       29.79R                  
HARTFORD       MOCLDY    67  63  87 S3        29.78S                  
BRIDGEPORT     CLEAR     66  63  90 SW8       29.81R                  
DANBURY        CLEAR     62  59  90 CALM      29.83R                  
GROTON         CLEAR     64  63  96 SW3       29.79R                  
NEW HAVEN      CLEAR     66  64  93 CALM      29.80R                  
CHESTER        FAIR      64  64 100 CALM      29.81R                  
MERIDEN        FOG       62  60  93 CALM      29.80R VSB 1            
WILLIMANTIC    CLOUDY    64  62  93 CALM      29.79R                  
OXFORD         CLEAR     62  61  96 W3        29.83R                  
$$

MEZ002-015-021-024-NHZ003-005-008-011-012-014-VTZ005-008-201100-
NORTHERN NEW ENGLAND
  
CITY           SKY/WX    TMP DP  RH WIND       PRES   REMARKS
PORTLAND ME    PTCLDY    63  59  87 W3        29.72R                  
BANGOR ME      MOSUNNY   59  56  89 SW5       29.68R                  
CONCORD NH     CLEAR     63  55  75 CALM      29.76R                  
MANCHESTER NH  MOCLDY    72  55  55 VRB3      29.74R                  
NASHUA NH      PTCLDY    70  58  65 CALM      29.76R                  
PORTSMOUTH NH  PTCLDY    69  53  54 W8        29.74R                  
JAFFREY NH     CLEAR     64  56  75 CALM      29.80R                  
KEENE NH       PTCLDY    60  57  89 CALM      29.78R                  
BURLINGTON VT  PTCLDY    59  57  93 E3        29.75R                  
MT. WASHINGTON FOG       43  43 100 W49G55      N/A  VSB 1/16WCI  30  
$$

NYZ052-076-201100-
EASTERN NEW YORK
  
CITY           SKY/WX    TMP DP  RH WIND       PRES   REMARKS
ALBANY         PTCLDY    60  60 100 CALM      29.80R                  
NEW YORK CITY  PTCLDY    70  58  65 VRB5      29.82R                  
$$
 
ANZALL-201100-
MARINE OBSERVATIONS
  
STATION/POSITION TIME  TEMP    WIND        PRES    VSBY  WAVE
                       AIR SEA DIR/SP/G                  HT/PER
                 (UTC) (F)     (DEG/KT/KT) (MB)    (MI)  (FT/S)
BOSTON BUOY      0950   64                 1007.4R         2/ 8
BUZZARDS BAY     0900          250/ 17/ 18 1008.9R
NANTUCKET SOUND  0940      67                N/A
MASS BAY-STELLWA 0904   63 59  240/ 10/ 12 1006.4R  1 7/8  1/ 3
ISLE OF SHOALS   0900   71     260/ 14/ 14 1005.5R
S OF BLOCK IS    0926      65                N/A           5/ 7
$$

......................KEY.........................
  SKY/WX - SKY CONDITION/PRESENT WEATHER
  TMP    - TEMPERATURE IN FAHRENHEIT
  DWPT   - DEWPOINT IN FAHRENHEIT
  RH     - RELATIVE HUMIDITY IN PERCENT
  WIND   - DIRECTION AND SPEED IN MPH
  PRES   - MEAN SEA LEVEL PRESSURE IN INCHES OF HG
  WCI    - WIND CHILL INDEX
  VSB    - VISIBILITY IN MILES
  HX     - HEAT INDEX
  TC     - TEMPERATURE IN CELSIUS
  VRB    - VARIABLE WIND DIRECTION
  N/A    - NOT AVAILABLE
  
      

Other recent Regional Weather Roundups

Wed Jun 23, 1:05am

Wed Jun 23, 12:04am

Tue Jun 22, 11:04pm

Tue Jun 22, 10:04pm

Tue Jun 22, 9:05pm

Tue Jun 22, 8:04pm

Tue Jun 22, 7:05pm

Tue Jun 22, 6:04pm

Tue Jun 22, 5:04pm

Tue Jun 22, 4:04pm

Tue Jun 22, 3:05pm

Tue Jun 22, 2:05pm

Tue Jun 22, 1:04pm

Tue Jun 22, 12:04pm

Tue Jun 22, 11:04am

Tue Jun 22, 10:04am

Tue Jun 22, 9:04am

Tue Jun 22, 8:05am

Tue Jun 22, 7:04am

Tue Jun 22, 6:04am

Tue Jun 22, 5:04am

Tue Jun 22, 4:04am

Tue Jun 22, 3:04am

Tue Jun 22, 2:04am

Tue Jun 22, 1:04am

Tue Jun 22, 12:04am

Mon Jun 21, 11:04pm

Mon Jun 21, 10:04pm

Mon Jun 21, 9:05pm

Mon Jun 21, 8:04pm

Mon Jun 21, 7:04pm

Mon Jun 21, 6:04pm

Mon Jun 21, 5:04pm

Mon Jun 21, 4:04pm

Mon Jun 21, 3:04pm

Mon Jun 21, 2:04pm

Mon Jun 21, 1:04pm

Mon Jun 21, 12:04pm

Mon Jun 21, 11:04am

Mon Jun 21, 10:04am

Mon Jun 21, 9:04am

Mon Jun 21, 8:04am

Mon Jun 21, 7:04am

Mon Jun 21, 6:04am

Mon Jun 21, 5:04am

Mon Jun 21, 4:04am

Mon Jun 21, 3:04am

Mon Jun 21, 2:04am

Mon Jun 21, 1:04am

Mon Jun 21, 12:04am

Sun Jun 20, 11:04pm

Sun Jun 20, 10:04pm

Sun Jun 20, 9:04pm

Sun Jun 20, 8:04pm

Sun Jun 20, 7:04pm

Sun Jun 20, 6:04pm

Sun Jun 20, 5:04pm

Sun Jun 20, 4:04pm

Sun Jun 20, 3:04pm

Sun Jun 20, 2:04pm

Sun Jun 20, 1:05pm

Sun Jun 20, 12:04pm

Sun Jun 20, 11:04am

Sun Jun 20, 10:04am

Sun Jun 20, 9:04am

Sun Jun 20, 8:04am

Sun Jun 20, 7:04am

Sun Jun 20, 5:04am

Sun Jun 20, 4:04am

Sun Jun 20, 3:04am

Sun Jun 20, 2:04am

Sun Jun 20, 1:04am

Sun Jun 20, 12:05am

Sat Jun 19, 11:04pm

Sat Jun 19, 10:04pm

Sat Jun 19, 9:05pm

Sat Jun 19, 8:04pm

Sat Jun 19, 7:04pm

Sat Jun 19, 6:04pm

Sat Jun 19, 5:04pm

Sat Jun 19, 4:04pm

Sat Jun 19, 3:04pm

Sat Jun 19, 2:04pm

Sat Jun 19, 1:04pm

Sat Jun 19, 12:04pm

Sat Jun 19, 11:04am

Sat Jun 19, 10:04am

Sat Jun 19, 9:04am

Sat Jun 19, 8:04am

Sat Jun 19, 7:04am

Sat Jun 19, 6:04am

Sat Jun 19, 5:04am

Sat Jun 19, 4:04am

Sat Jun 19, 3:04am

Sat Jun 19, 2:04am

Sat Jun 19, 1:04am

Sat Jun 19, 12:04am

Fri Jun 18, 11:05pm

Fri Jun 18, 10:04pm

Fri Jun 18, 9:04pm

Fri Jun 18, 8:04pm

Fri Jun 18, 7:04pm

Fri Jun 18, 6:04pm

Fri Jun 18, 5:04pm

Fri Jun 18, 4:04pm

Fri Jun 18, 3:04pm

Fri Jun 18, 2:04pm

Fri Jun 18, 1:05pm

Fri Jun 18, 12:04pm

Fri Jun 18, 11:04am

Fri Jun 18, 10:05am

Fri Jun 18, 9:04am

Fri Jun 18, 8:04am

Fri Jun 18, 7:04am

Fri Jun 18, 6:04am

Fri Jun 18, 5:04am

Fri Jun 18, 4:04am

Fri Jun 18, 3:04am

Fri Jun 18, 2:04am

Fri Jun 18, 1:04am

Fri Jun 18, 12:04am

Thu Jun 17, 11:04pm

Thu Jun 17, 10:04pm

Thu Jun 17, 9:04pm

Thu Jun 17, 8:04pm

Thu Jun 17, 7:04pm

Thu Jun 17, 6:04pm

Thu Jun 17, 5:04pm

Thu Jun 17, 4:04pm

Thu Jun 17, 3:04pm

Thu Jun 17, 2:04pm

Thu Jun 17, 1:05pm

Thu Jun 17, 12:04pm

Thu Jun 17, 11:04am

Thu Jun 17, 10:05am

Thu Jun 17, 9:04am

Thu Jun 17, 8:04am

Thu Jun 17, 7:04am

Thu Jun 17, 6:04am

Thu Jun 17, 5:04am

Thu Jun 17, 4:04am

Thu Jun 17, 3:04am

Thu Jun 17, 2:04am

Thu Jun 17, 1:04am

Thu Jun 17, 12:04am

Wed Jun 16, 11:04pm

Wed Jun 16, 10:04pm

Wed Jun 16, 9:04pm

Wed Jun 16, 8:04pm

Wed Jun 16, 7:04pm

Wed Jun 16, 6:04pm

Wed Jun 16, 5:04pm

Wed Jun 16, 4:04pm

Wed Jun 16, 3:04pm

Wed Jun 16, 2:04pm

Wed Jun 16, 1:04pm

Wed Jun 16, 12:04pm

Wed Jun 16, 11:04am

Wed Jun 16, 10:04am

Wed Jun 16, 9:04am

Wed Jun 16, 8:04am

Wed Jun 16, 7:04am

Wed Jun 16, 6:04am

Wed Jun 16, 5:04am

Wed Jun 16, 4:04am

Wed Jun 16, 3:04am

Wed Jun 16, 2:04am

Meta data:

ID: fe7842f5-1305-42ab-bbe7-29f25278cd48
Link: https://api.weather.gov/products/fe7842f5-1305-42ab-bbe7-29f25278cd48